Regional Weather Roundup
Issued by NWS Jackson, KY

Home | Current Version | Previous Version | Graphics & Text | Print | Product List | Glossary On
Versions: 1 2 3 4 5 6 7 8 9 10 11 12 13 14 15 16 17 18 19 20 21 22 23 24 25 26 27 28
000
ASUS43 KJKL 212010
RWRJKL

EAST KENTUCKY HOURLY WEATHER ROUNDUP
NATIONAL WEATHER SERVICE JACKSON KY
400 PM EDT WED JUN 21 2017

NOTE: "FAIR" INDICATES FEW OR NO CLOUDS BELOW 12,000 FEET WITH
NO SIGNIFICANT WEATHER AND/OR OBSTRUCTIONS TO VISIBILITY.

* THESE REPORTS ARE NOT UNDER NWS QUALITY CONTROL AND MAY NOT
  REPORT WEATHER SUCH AS PRECIPITATION AND FOG.

KYZ079-080-083-085-087-088-110-112-115-119-120-212100
...EASTERN KENTUCKY...

CITY           SKY/WX    TMP DP  RH WIND       PRES   REMARKS
JACKSON        CLOUDY    84  65  52 VRB3      30.07R
LONDON         CLOUDY    83  60  45 SW9       30.08S
SOMERSET*      SUNNY     81  61  50 W10       30.09R
MONTICELLO*    MOSUNNY   85  66  53 W16       30.09S
WILLIAMSBURG*  CLOUDY    84  64  51 S7        30.09S
MIDDLESBORO*   MOSUNNY   84  66  54 S5        30.10S
HARLAN APT*    CLOUDY    82  59  44 SW6       30.11S
PIKE CO APT*     N/A     82  61  48 SW6       30.08R
BIG SANDY APT* CLOUDY    84  63  48 SW8       30.06R
MOREHEAD APT*  MOCLDY    86  63  45 SW10G18   30.05R
$$

KYZ035-036-041-042-044-050-067-078-099-212100
...CENTRAL KENTUCKY...

CITY           SKY/WX    TMP DP  RH WIND       PRES   REMARKS
MT STERLING*   MOSUNNY   86  64  48 W13       30.05R
FLEMING/MASON* MOSUNNY   89  63  42 SW15G21   30.01F
DANVILLE*      CLOUDY    86  64  48 SW8       30.06S
LEXINGTON      SUNNY     88  61  40 W12       30.03R
FRANKFORT      SUNNY     89  64  43 SW15      30.00S HX  90
LOUISVILLE     PTSUNNY   92  64  39 SW15      29.98S HX  93
LEBANON*         N/A     86  64  48 S8        30.04S
GLASGOW*       CLOUDY    84  66  53 S9        30.05F
BOWLING GREEN  CLOUDY    86  66  51 S12       30.03F
$$

KYZ091>093-OHZ055-061-077-WVZ005-015-034-035-042-212100
...SOUTHERN OHIO/WEST VIRGINIA...

CITY           SKY/WX    TMP DP  RH WIND       PRES   REMARKS
COVINGTON      MOSUNNY   88  64  44 SW12G23   29.96F
COLUMBUS       MOSUNNY   85  64  49 VRB5      29.95F
DAYTON         MOSUNNY   82  65  56 CALM      29.97F
WILMINGTON     MOSUNNY   83  65  54 W15G22    29.96S
HUNTINGTON     MOSUNNY   88  62  41 W13G18    30.00S
CHARLESTON     MOSUNNY   85  59  41 SW12G18   30.01S
PINEVILLE*     MOSUNNY   85  59  40 MISG      30.12S
BECKLEY        PTSUNNY   80  56  43 W9        30.11S
BLUEFIELD      CLOUDY    76  54  46 W8        30.14S
LOGAN CO APT*    N/A     84  61  45 W10       30.06S
$$

VAZ002-007-008-TNZ017-027-036-066-071-212100
...SOUTHWEST VIRGINIA/EAST TENNESSEE...

CITY           SKY/WX    TMP DP  RH WIND       PRES   REMARKS
WISE*          CLOUDY    77  61  57 SW9       30.17R
JONESVILLE*      N/A     82  63  51 SW7       30.12F
ABINGDON*      CLOUDY    80  62  54 W7        30.14R
BRISTOL        CLOUDY    82  61  48 VRB3      30.11S
MORRISTOWN*    CLEAR     82  64  54 VRB5      30.09S
SEVIERVILLE*     N/A     84  64  51 W6        30.07S
KNOXVILLE      CLOUDY    83  65  54 SW6       30.08R
LAFOLLETTE*    PTCLDY    82  66  57 SW7       30.12S
OAK RIDGE      CLOUDY    85  63  47 VRB3      30.10R
CROSSVILLE     CLOUDY    79  63  57 S5        30.13S
NASHVILLE      CLOUDY    86  63  45 SE6       30.04F
$$

...KEY TO REMARKS...
VSB - VISIBILITY IN MILES
WCI - WIND CHILL INDEX
HX  - HEAT INDEX

$$




USA.gov is the U.S. government's official web portal to all federal, state and local government web resources and services.